Location: Brno
(49.2000°N, 16.6330°E)
Time: 10:29:47
(UTC+02:00)

Vanguard 3 - Pass Details

Date: 30 July 2021
Orbit: 510 x 3260 km, 33.3° (Epoch: 18 September)

Event Time Altitude Azimuth Distance (km) Brightness Sun altitude
Rises 02:05:16 0° 276° (W) 7,227 11.9 -20.8°
Reaches altitude 10° 02:12:46 10° 261° (W) 6,062 11.3 -20.4°
Enters shadow 02:22:25 17° 229° (SW) 4,989 10.6 -19.9°
